Regional Weather Roundup
Issued by NWS Charleston, WV

Home | Current Version | Previous Version | Graphics & Text | Print | Product List | Glossary On
Versions: 1 2 3 4 5 6 7 8 9 10 11 12 13 14 15 16 17 18 19 20 21 22 23 24 25 26 27
000
ASUS41 KRLX 151010
RWRRLX
West Virginia Regional Weather Roundup
National Weather Service Charleston WV
500 AM EST FRI DEC 15 2017

Note: "fair" indicates few or no clouds below 12,000 feet with no
significant weather and/or obstructions to visibility.

WVZ003-151100-
Northern Panhandle of West Virginia

CITY           SKY/WX    TMP DP  RH WIND       PRES   REMARKS
WHEELING       CLOUDY    16  13  88 CALM      29.97F
$$

WVZ009-151100-
Northwest West Virginia

CITY           SKY/WX    TMP DP  RH WIND       PRES   REMARKS
PARKERSBURG    CLOUDY    23  17  78 NW3       30.04F
$$

WVZ006-151100-
Western West Virginia

CITY           SKY/WX    TMP DP  RH WIND       PRES   REMARKS
HUNTINGTON     CLOUDY    25  18  74 CALM      30.01F
$$

WVZ015-151100-
West Central West Virginia

CITY           SKY/WX    TMP DP  RH WIND       PRES   REMARKS
CHARLESTON     CLOUDY    28  19  69 SE3       29.99F
$$

WVZ022-031-151100-
North Central West Virginia

CITY           SKY/WX    TMP DP  RH WIND       PRES   REMARKS
CLARKSBURG     CLOUDY    27  20  75 CALM      29.98F
MORGANTOWN     CLOUDY    24  18  77 CALM      29.98
$$

WVZ025-035-042-045-151100-
Southern West Virginia

CITY           SKY/WX    TMP DP  RH WIND       PRES   REMARKS
BECKLEY        CLOUDY    27  20  75 CALM      29.90F
LOGAN          CLOUDY    28  23  80 CALM      29.95F
BLUEFIELD      CLOUDY    25  20  81 SE3       29.91S
LEWISBURG      CLOUDY    28  22  81 N3        29.93F
$$

WVZ047-151100-
Northern Mountains of West Virginia

CITY           SKY/WX    TMP DP  RH WIND       PRES   REMARKS
ELKINS         CLOUDY    25  20  81 CALM      29.93
$$

WVZ052-151100-
Eastern Panhandle of West Virginia

CITY           SKY/WX    TMP DP  RH WIND       PRES   REMARKS
MARTINSBURG    CLOUDY    24  16  71 CALM      30.07F
PETERSBURG     CLOUDY    25  18  73 CALM      30.02S
$$




USA.gov is the U.S. government's official web portal to all federal, state and local government web resources and services.